WetterOnline ( https://www.wetteronline.de )

Wetter aktuell Coburg

Aktuelles Wetter: Coburg (323m)

6-stündlich | Neueste Meldungen
Ortszeit Temperatur Wetter
Mo, 03.10. 20:00 9.5° C fast wolkenlos
Mo, 03.10. 14:00 12.9° C bewölkt
Mo, 03.10. 8:00 7.9° C wolkig
Mo, 03.10. 2:00 8.1° C wolkenlos
So, 02.10. 20:00 11.4° C wolkig
So, 02.10. 14:00 12.6° C Sprühregen
So, 02.10. 8:00 10.6° C Regen
So, 02.10. 2:00 8.7° C bedeckt
Ortszeit Temperatur Wetter
Mo, 03.10. 23:00 7.0° C fast wolkenlos
Mo, 03.10. 22:40 6.7° C wolkig
Mo, 03.10. 22:30 7.0° C wolkig
Mo, 03.10. 22:20 7.0° C wolkig
Mo, 03.10. 22:10 7.4° C bewölkt
Mo, 03.10. 22:00 8.2° C leicht bewölkt
Mo, 03.10. 21:50 8.2° C leicht bewölkt
Mo, 03.10. 21:30 8.1° C leicht bewölkt
Mo, 03.10. 21:00 8.5° C leicht bewölkt
Mo, 03.10. 20:30 9.4° C wolkenlos
Mo, 03.10. 20:00 9.5° C fast wolkenlos
Ortszeit Relative Feuchte Sichtweite
Mo, 03.10. 20:00 87% 50 km
Mo, 03.10. 14:00 71% 60 km
Mo, 03.10. 8:00 95% 27 km
Mo, 03.10. 2:00 96% 23 km
So, 02.10. 20:00 94% 30 km
So, 02.10. 14:00 90% 23 km
So, 02.10. 8:00 97% 16 km
So, 02.10. 2:00 98% 35 km
Ortszeit Relative Feuchte Sichtweite
Mo, 03.10. 23:00 96% 40 km
Mo, 03.10. 22:40 95% -
Mo, 03.10. 22:30 95% 35 km
Mo, 03.10. 22:20 95% -
Mo, 03.10. 22:10 94% -
Mo, 03.10. 22:00 90% 45 km
Mo, 03.10. 21:50 90% -
Mo, 03.10. 21:30 88% 55 km
Mo, 03.10. 21:00 89% 55 km
Mo, 03.10. 20:30 85% 55 km
Mo, 03.10. 20:00 87% 50 km
Ortszeit Niederschlagsmenge Niederschlagsart
Mo, 03.10. 20:00 0.1 l/m2 in 12 Std. -
Mo, 03.10. 14:00 0.1 l/m2 in 6 Std. Sprühregen
Mo, 03.10. 8:00 0.0 l/m2 in 12 Std. -
Mo, 03.10. 2:00 0.1 l/m2 in 6 Std. -
So, 02.10. 20:00 1 l/m2 in 12 Std. Regen
So, 02.10. 14:00 0.4 l/m2 in 6 Std. Regen
So, 02.10. 8:00 1 l/m2 in 12 Std. Regen
So, 02.10. 2:00 0.0 l/m2 in 6 Std. -
Ortszeit Niederschlagsmenge Niederschlagsart
Mo, 03.10. 23:00 0.0 l/m2 in 1 Std. -
Mo, 03.10. 22:40 keine Meldung -
Mo, 03.10. 22:30 0.0 l/m2 in 1 Std. -
Mo, 03.10. 22:20 keine Meldung -
Mo, 03.10. 22:10 keine Meldung -
Mo, 03.10. 22:00 0.0 l/m2 in 1 Std. -
Mo, 03.10. 21:50 keine Meldung -
Mo, 03.10. 21:30 0.0 l/m2 in 1 Std. -
Mo, 03.10. 21:00 0.0 l/m2 in 1 Std. -
Mo, 03.10. 20:30 0.0 l/m2 in 1 Std. -
Mo, 03.10. 20:00 0.0 l/m2 in 1 Std. -
Ortszeit Stärke Spitze Richtung
km/h Bft. km/h Grad Sektor
Mo, 03.10. 20:00 0 0 29 - -
Mo, 03.10. 14:00 18 3 32 320° NW
Mo, 03.10. 8:00 9 2 13 310° NW
Mo, 03.10. 2:00 9 2 13 290° W
So, 02.10. 20:00 6 1 31 290° W
So, 02.10. 14:00 22 4 33 260° W
So, 02.10. 8:00 7 2 14 240° SW
So, 02.10. 2:00 4 1 18 10° N
Ortszeit Stärke Spitze Richtung
km/h Bft. km/h Grad Sektor
Mo, 03.10. 23:00 6 1 7 20° N
Mo, 03.10. 22:40 6 1 - 20° N
Mo, 03.10. 22:30 4 1 7 30° NO
Mo, 03.10. 22:20 4 1 - 30° NO
Mo, 03.10. 22:10 4 1 - 10° N
Mo, 03.10. 22:00 0 0 11 - -
Mo, 03.10. 21:50 2 1 - 310° NW
Mo, 03.10. 21:30 7 2 11 310° NW
Mo, 03.10. 21:00 4 1 11 290° W
Mo, 03.10. 20:30 6 1 9 310° NW
Mo, 03.10. 20:00 0 0 11 - -
Ortszeit Untergrenze Bedeckung Gattung
total tief tief mittel hoch
Mo, 03.10. 20:00 9000 m 1/8 0/8 - - -
Mo, 03.10. 14:00 780 m 7/8 7/8 - - -
Mo, 03.10. 8:00 630 m 5/8 5/8 - - -
Mo, 03.10. 2:00 - 0/8 0/8 - - -
So, 02.10. 20:00 2100 m 8/8 1/8 - - -
So, 02.10. 14:00 330 m 8/8 8/8 - - -
So, 02.10. 8:00 180 m 8/8 8/8 - - -
So, 02.10. 2:00 210 m 8/8 8/8 - - -
Ortszeit Bedeckungsgrad in Achtel und Wolkenuntergrenze
Mo, 03.10. 23:00 2(8400m)
Mo, 03.10. 22:40 5
Mo, 03.10. 22:30 4(8400m) 7(9000m) 7(9000m)
Mo, 03.10. 22:20 4(8400m) 7(9000m) 7(9000m)
Mo, 03.10. 22:10 7
Mo, 03.10. 22:00 4(8400m) 6(9000m) 6(10500m)
Mo, 03.10. 21:50 4(8400m) 6(9000m) 6(10500m)
Mo, 03.10. 21:30 3(10500m)
Mo, 03.10. 21:00 4(9000m)
Mo, 03.10. 20:30 keine Wolken
Mo, 03.10. 20:00 1(9000m)
Ortszeit Luftdruck NN (hPa) Tendenz (hPa in 3 Std.)
Mo, 03.10. 20:00 1026 - 0,3
Mo, 03.10. 14:00 1026 - 0,2
Mo, 03.10. 8:00 1026 + 0,9
Mo, 03.10. 2:00 1024 + 1,4
So, 02.10. 20:00 1019 + 1,6
So, 02.10. 14:00 1018 - 0,1
So, 02.10. 8:00 1018 - 0,3
So, 02.10. 2:00 1017 + 2,3
Ortszeit Luftdruck NN (hPa) Tendenz (hPa in 3 Std.)
Mo, 03.10. 23:00 1027 - 0,1
Mo, 03.10. 22:40 1027 keine Meldung
Mo, 03.10. 22:30 1027 + 0,1
Mo, 03.10. 22:20 1027 keine Meldung
Mo, 03.10. 22:10 1027 keine Meldung
Mo, 03.10. 22:00 1027 + 0,1
Mo, 03.10. 21:50 1027 keine Meldung
Mo, 03.10. 21:30 1027 + 0,1
Mo, 03.10. 21:00 1027 - 0,1
Mo, 03.10. 20:30 1026 - 0,3
Mo, 03.10. 20:00 1026 - 0,3
Ortszeit Schneehöhe (cm)
Mo, 03.10. 20:00 0
Mo, 03.10. 14:00 0
Mo, 03.10. 8:00 0
Mo, 03.10. 2:00 0
So, 02.10. 20:00 0
So, 02.10. 14:00 0
So, 02.10. 8:00 0
So, 02.10. 2:00 0
Ortszeit Schneehöhe (cm)
Mo, 03.10. 23:00 0
Mo, 03.10. 22:40 0
Mo, 03.10. 22:30 0
Mo, 03.10. 22:20 0
Mo, 03.10. 22:10 0
Mo, 03.10. 22:00 0
Mo, 03.10. 21:50 0
Mo, 03.10. 21:30 0
Mo, 03.10. 21:00 0
Mo, 03.10. 20:30 0
Mo, 03.10. 20:00 0
Link zu dieser Seite / Seite empfehlen

Das Wetter in ...